This is the latest recevied weather packets stored in our database for station/object KI8L. If no packets are shown the sender has not sent any weather packets the latest 10 day(s).
| Time | Temp. | Humidity | Pressure | Rain* | Wind** | Luminosity | Snow |
|---|---|---|---|---|---|---|---|
| 1777510547 | 8.33° C | 99% | 1013.6 hPa | 0 mm | - | 0 W/m² | - |
| 1777510243 | 8.33° C | 99% | 1013.5 hPa | 0 mm | - | 0 W/m² | - |
| 1777509939 | 8.33° C | 99% | 1013.7 hPa | 0 mm | - | 0 W/m² | - |
| 1777509635 | 8.33° C | 99% | 1013.5 hPa | 0 mm | - | 0 W/m² | - |
| 1777509332 | 8.33° C | 99% | 1013.2 hPa | 0 mm | - | 0 W/m² | - |
| 1777509030 | 8.33° C | 99% | 1013.4 hPa | 0 mm | - | 0 W/m² | - |
| 1777508727 | 8.89° C | 99% | 1013.3 hPa | 0 mm | - | 1 W/m² | - |
| 1777508424 | 8.89° C | 99% | 1013.4 hPa | 0 mm | - | 1 W/m² | - |
| 1777508121 | 8.89° C | 99% | 1013.3 hPa | 0 mm | - | 1 W/m² | - |
| 1777507818 | 8.89° C | 99% | 1013.3 hPa | 0 mm | - | 2 W/m² | - |
| 1777507515 | 8.89° C | 99% | 1013.3 hPa | 0 mm | - | 2 W/m² | - |
| 1777507211 | 8.89° C | 99% | 1013.3 hPa | 0 mm | - | 1 W/m² | - |
| 1777506909 | 8.89° C | 99% | 1013.1 hPa | 0 mm | - | 2 W/m² | - |
| 1777506606 | 8.89° C | 99% | 1013 hPa | 0 mm | - | 2 W/m² | - |
| 1777506302 | 8.89° C | 99% | 1013 hPa | 0 mm | - | 6 W/m² | - |
| 1777505998 | 8.89° C | 98% | 1012.9 hPa | 0 mm | - | 4 W/m² | - |
| 1777505694 | 8.89° C | 99% | 1012.8 hPa | 0 mm | - | 4 W/m² | - |
| 1777505391 | 8.89° C | 98% | 1012.6 hPa | 0 mm | - | 7 W/m² | - |
| 1777505087 | 8.89° C | 98% | 1012.6 hPa | 0 mm | - | 10 W/m² | - |
| 1777504784 | 8.89° C | 98% | 1012.6 hPa | 0 mm | - | 10 W/m² | - |
| 1777504482 | 8.89° C | 98% | 1012.5 hPa | 0 mm | - | 13 W/m² | - |
| 1777504177 | 8.89° C | 98% | 1012.7 hPa | 0 mm | - | 18 W/m² | - |
| 1777503873 | 8.89° C | 98% | 1012.8 hPa | 0 mm | - | 17 W/m² | - |
| 1777503569 | 8.89° C | 98% | 1012.6 hPa | 0 mm | - | 23 W/m² | - |
| 1777503267 | 8.89° C | 99% | 1012.5 hPa | 0 mm | - | 32 W/m² | - |
* Rain latest hour (hover to see other rain measurements)
** Current wind speed in m/s (hover to see current wind gust speed)